Location: Lake Sonoma
(38.7200°N, 123.0564°W)
Time: 15:31:40
(UTC-07:00)

ISS - Visible Passes

Search period start: 27 March 2017 00:00
Search period end: 06 April 2017 00:00
Orbit: 399 x 409 km, 51.6° (Epoch: 28 March)

Date Brightness Start Highest point End Pass type
(mag) Time Alt. Az. Time Alt. Az. Time Alt. Az.
27 Mar -3.7 20:29:27 10° SW 20:32:36 51° SE 20:34:47 18° ENE visible
27 Mar -0.6 22:06:41 10° WNW 22:07:31 14° WNW 22:07:31 14° WNW visible
28 Mar -2.2 21:13:46 10° W 21:16:45 32° NNW 21:18:08 22° NNE visible
29 Mar -3.3 20:21:06 10° WSW 20:24:19 60° NW 20:27:33 10° NE visible
29 Mar -0.8 21:59:36 10° NW 22:01:13 13° NNW 22:01:13 13° NNW visible
30 Mar -1.2 21:06:19 10° WNW 21:08:42 18° NNW 21:11:05 10° NNE visible
31 Mar -1.8 20:13:16 10° W 20:16:07 27° NNW 20:19:00 10° NNE visible
01 Apr -0.9 20:59:17 10° NW 21:00:44 12° NNW 21:02:10 10° N visible
02 Apr -1.1 20:05:51 10° WNW 20:08:02 16° NNW 20:10:12 10° NNE visible
05 Apr -0.5 22:20:25 10° NNW 22:20:35 11° NNW 22:20:35 11° NNW visible
